Timeline UpdatesTrip UpdatesNews PostsPvt Posts♥♥Travel TipsAdmin PostsConv PostsFollowed PostsChat RequestsBlog PostsPNR Posts

Disclaimer
Search
 
 
Wed Oct 22, 2014 01:21:55 ISTHomeTrainsΣChainsAtlasPNRForumGalleryNewsFAQTripsMembersLoginFeedback
No Recent News for this Train
Other Trains in the News **new
Latest...
⇐ Return Journey: Train# 59207

59208/Okha - Bhavnagar Passenger

Time-Table HAS CHANGED.
Sep 06 2014 (10:24PM)
Change Departure Station:
Change Arrival Station:
Post a Train Travel TipPost a Train Travel Tip **new
Post a Comment/Question/Picture/VideoPost a Comment/Question/Picture/Video
Pantry/Catering
✕ NO Pantry Car
✕ NO Catering
RSA - Rake Sharing
59267/59268 Bhavnagar-Palitana Passenger
Rake/Coach Composition
Eng.. GEN..GEN..GEN..S2..S1..GEN..GEN..GEN..SLR
Loco
RTM WDM 3A.
News    PNR    Forum    Time-Table    Availability    Fare Chart    Map    Arr/Dep History    Trips    Gallery    ΣChains    X/O    Timeline    
Travel Time: 11h 13m    40 halts    Distance: 370 km    Avg Speed: 32 km/hr
Type: Passenger
Zone: WR/Western
Departs @ 18:37 (Avg 19m late)
Platform# 1
SMTWTFS
Jamnagar/JAM 
Arrives @ 05:50 +1 night (Avg 2m late)
Platform# 1
SMTWTFS
Bhavnagar Terminus/BVC 

40 halts. 49 intermediate Stations between Jamnagar and Bhavnagar Terminus

Show ALL intermediate Stations  Show Old Time-Table

#TrkCodeStation NameX/OArrivesAvgDepartsAvgHaltPFDay#KmSpeedElevZoneAddress
1|--|OKHAOkha (3)  -14:45+111-167.0715mWROkha, Gujarat
2|--|MTHPMithapur  14:54 14:53-14:55-1 2m--1-157.5253mWRJamnagar, Gujarat
3|--|BMRNBhimranaX  15:02+515:03+131m--1-154.6376mWRBhimrana, Gujarat
4|--|VVAVarvala  15:22 15:21-15:23-1 2m--1-143.46014mWRJamnagar, Gujarat
5|--|DWKDwarka (2)X  15:28+915:30+152m21-138.41714mWRDwarka, Gujarat
6|--|GRJAGorinja  15:45 15:44+2115:46+231 2m--1-134.5635mWRKhambhalia-Dwarka (SH 6), Gujarat
7|--|OKDOkha MadhiX  16:04 16:03+1916:05+221 2m--1-116.5305mWRNH 8E, Gujarat
8|--|KRGAKuranga  16:23 16:22-16:24-1 2m--1-108.27712mWRJamnagar, Gujarat
9|--|BHTABhatiya  16:34 16:33+1116:35+111 2m--1-96.65034mWRNational Highway 8E, Gujarat
10|--|BPKABhopalka  16:48 16:47+1316:49+131 2m--1-86.67746mWRJamnagar, Gujarat
11|--|BHTLBhatel  17:01 17:00+1917:02+181 2m--1-72.56535mWRJamnagar, Gujarat
12|--|VQDViramdad  17:13 17:12-17:14-1 2m--1-61.74949mWRKhambhalia-Dwarka (SH 6), Gujarat
13|--|KMBLKhambhalia  17:23+1617:25+152m11-54.36749mWRKhambhalia, Gujarat
14|--|SYQSinhanX  17:33 17:32-17:34-1 2m--1-46.66250mWRSH 6, Gujarat
15|--|MDPRModpur  17:44 17:43+2117:45+211 2m--1-37.25947mWRKhambhalia-Lalpur, Gujarat
16|--|KNLSKanalus JunctionX  17:57 17:56+2217:58+251 2m--1-26.54436mWRJamnagar, Gujarat
17|--|PPLIPipli  18:06 18:05+2718:07+261 2m--1-21.35730mWRJamnagar, Gujarat
18|--|LKBLLakhabawal  18:18 18:17+2618:19+301 2m--1-11.85521mWRJamnagar, Gujarat
19|--|JAMJamnagar (2)»  18:32+1918:37+195m110.04314mWRJamnagar, Gujarat
20|--|HAPAHapa (3)  18:49+2518:54+305m318.75916mWRJamnagar, Gujarat
21|--|ALBAlia Bada  19:05 19:04+3619:06+351 2m--118.66427mWRJamnagar, Gujarat
22|--|WTJJam Wanthali  19:18 19:17+3619:19+361 2m--130.33852mWRRanuja Village Rd, Gujarat
23|--|JALDJaliya DevaniX  19:31+3519:33+362m--137.93650mWRRanuja Village Rd, Gujarat
24|--|HMHadmatiya Junction  19:47 19:46+3019:48+301 2m--145.84870mWRHadmatiya Junction Railway Station, Gujarat
25|--|CXChanolX  19:57+2919:59+322m--152.93489mWRState Highway 25, Gujarat
26|--|PDHPadadhari  20:12 20:11+2520:13+251 2m--159.86571mWRPaddhari, Gujarat
27|--|KHDIKhanderi  20:27 20:26+2520:28+251 2m--173.730111mWRRajkot, Gujarat
28|--|RJTRajkot Junction (5)X  20:50+1021:00+1210m1184.636128mWRRajkot, Gujarat
29|--|KHCKhorana  21:19 21:18+2521:20+251 2m--195.379131mWRState Highway 113, Gujarat
30|--|SDDSindhawadarX  21:35 21:34+2821:36+321 2m--1113.840105mWRSindhavadar, Gujarat
31|--|WKRCWankaner City  21:52-21:53-1m--1124.41380mWRWankaner, Gujarat
32|--|WKRWankaner Junction (4)X  22:02+3522:04 22:12+452 10m--1126.35387mWRWankaner, Gujarat
33|--|DLDaladi  22:27 22:26+5122:28+521 2m--1138.742115mWRDaladi, Gujarat
34|--|THANThan Junction (3)X  22:48+4122:50+452m11152.952138mWRThangadh, Gujarat
35|--|VDVagdiya  23:03 23:02+5423:04+561 2m--1163.255149mWRState Highway 113, Gujarat
36|--|RARamparda  23:12 23:11+5723:13+1:091 2m--1169.761141mWRSurendranagar, Gujarat
37|--|MOLMuli RoadX  23:22+1:1023:24+1:142m11178.940108mWRSurendranagar, Gujarat
38|--|DXRDigsar  23:37 23:36+1:1423:38+1:181 2m--1186.98100mWRState Highway 17, Gujarat
39!=-|SUNRSurendranagar Junction (4)X  01:15+901:55+1340m32200.64372mWRSurendra Nagar, Gujarat
40|--|SRGTSurendranagar Gate (1)  02:01 01:58-02:02 02:00-1 2m12202.84271mWRSurendranagar, Gujarat
41|--|JVNJorawarnagar Junction (1)  02:06 02:04-02:07 02:06-1 2m12205.54369mWRSurendra Nagar, Gujarat
42|--|WCWadhwan City  02:13 02:11+2502:14 02:13+251 2m--2209.18167mWRSurendranagar, Gujarat
43|--|LMLimbdi (1)  02:30 02:28+2702:31 02:30+271 2m12229.46751mWRLimbdi, Gujarat
44|--|CDAChuda  02:41 02:39+2802:42 02:41+301 2m--2239.47563mWRState Highway 38, Gujarat
45|--|RURRanpur  02:56 02:54+3202:57 02:56+311 2m--2255.77261mWRRanpur, Gujarat
46|--|KDIKundli  03:07 03:05+3303:08 03:07+341 2m--2266.55786mWRState Highway 38, Gujarat
47|--|BTDBotad Junction (5)  03:20 03:19+2703:22 03:21+282m--2277.97496mWRBotad, Gujarat
48|--|LTDLathidad  03:32 03:30+4003:33 03:32+401 2m--2289.07568mWRTajpar Rd, Gujarat
49|--|NGANingala Junction  03:41 03:38+3603:42 03:40+351 2m--2296.57557mWRState Highway 117, Gujarat
50|--|ALMRAlampur  03:49 03:46+4103:50 03:48+401 2m--2304.05059mWRState Highway 31, Gujarat
51|--|UJUjalvav  03:58 03:56+4103:59 03:58+401 2m--2310.75164mWRState Highway 31, Gujarat
52|--|DLJDhola Junction  04:11 04:10+3304:12 04:11+331m--2320.89437mWRDhola, Gujarat
53|--|SOASanosra  04:20 04:18+4004:21 04:20+391 2m--2331.96436mWRState Highway 25, Gujarat
54|--|BJUDBajud  04:26 04:24-04:27 04:26-1 2m--2336.26137mWRState Highway 31, Gujarat
55|--|SGDSongadh (1)X  04:33 04:32+3904:34+381 2m12342.33740mWRBhavnagar, Gujarat
56|--|SOJNSihor Gujarat  04:49 04:46+3304:50 04:48+321 2m--2349.75342mWRShihor, Gujarat
57|--|KDMRKodiyar Mandir  04:57 04:54+3204:58 04:56+311 2m12355.02192mWRSH 21, Gujarat
58|--|VTJVartejX  05:12 05:11+1905:13+211 2m--2360.23124mWRBhavnagar, Gujarat
59|--|BVPBhavnagar Para  05:28 05:27+2305:29+231 2m--2367.5813mWRBhavnagar, Gujarat
60|--|BVCBhavnagar Terminus (2)•  05:50+2-12370.2-11mWRBhavnagar, Gujarat
Scroll to Top
Scroll to Bottom